This is the latest recevied weather packets stored in our database for station/object KA7GOO. If no packets are shown the sender has not sent any weather packets the latest 10 day(s).
| Time | Temp. | Humidity | Pressure | Rain* | Wind** | Luminosity | Snow |
|---|---|---|---|---|---|---|---|
| 1778121079 | - | - | 1006.3 hPa | 0 mm | - | - | - |
| 1778120180 | 27.22° C | 31% | 1006.2 hPa | 0 mm | - | - | - |
| 1778119253 | 28.33° C | 31% | 1006.3 hPa | 0 mm | - | - | - |
| 1778118383 | 28.89° C | 31% | 1006.3 hPa | 0 mm | - | - | - |
| 1778117486 | 29.44° C | 31% | 1006.4 hPa | 0 mm | - | - | - |
| 1778116557 | 28.89° C | 31% | 1006.4 hPa | 0 mm | - | - | - |
| 1778115685 | 28.89° C | 31% | 1006.5 hPa | 0 mm | - | - | - |
| 1778114705 | 29.44° C | 31% | 1006.6 hPa | 0 mm | - | - | - |
| 1778113874 | 29.44° C | 31% | 1006.7 hPa | 0 mm | - | - | - |
| 1778112993 | 29.44° C | 31% | 1006.8 hPa | 0 mm | - | - | - |
| 1778112078 | 28.89° C | 31% | 1006.8 hPa | 0 mm | - | - | - |
| 1778111113 | 28.89° C | 31% | 1007 hPa | 0 mm | - | - | - |
| 1778110277 | 28.89° C | 31% | 1007.2 hPa | 0 mm | - | - | - |
| 1778109311 | 28.89° C | 31% | 1007.3 hPa | 0 mm | - | - | - |
| 1778108416 | 28.89° C | 31% | 1007.6 hPa | 0 mm | - | - | - |
| 1778107520 | 28.89° C | 31% | 1007.9 hPa | 0 mm | - | - | - |
| 1778106680 | 28.33° C | 31% | 1008.1 hPa | 0 mm | - | - | - |
| 1778105780 | 28.89° C | 31% | 1008.4 hPa | 0 mm | - | - | - |
| 1778104887 | 28.33° C | 31% | 1008.7 hPa | 0 mm | - | - | - |
| 1778103990 | 27.78° C | 31% | 1009 hPa | 0 mm | - | - | - |
| 1778103070 | 27.22° C | 31% | 1009.3 hPa | 0 mm | - | - | - |
| 1778102180 | 27.78° C | 31% | 1009.3 hPa | 0 mm | - | - | - |
| 1778101206 | 27.22° C | 31% | 1009.5 hPa | 0 mm | - | - | - |
| 1778100354 | 26.67° C | 31% | 1009.6 hPa | 0 mm | - | - | - |
| 1778099476 | 26.67° C | 32% | 1009.9 hPa | 0 mm | - | - | - |
* Rain latest hour (hover to see other rain measurements)
** Current wind speed in m/s (hover to see current wind gust speed)